Regional Weather Roundup
Issued by NWS

Home | Current Version | Previous Version | Text Only | Print | Product List | Glossary On
Versions: 1 2 3 4 5 6 7 8 9 10 11 12 13 14 15 16 17 18 19 20 21 22 23 24 25 26 27 28 29 30 31 32 33 34 35 36 37 38 39 40 41 42 43 44 45 46 47 48 49 50
000
ASUS44 KFWD 310910
RWRTX
NORTH TEXAS HOURLY WEATHER ROUNDUP
NATIONAL WEATHER SERVICE FORT WORTH TX
300 AM CST SAT JAN 31 2015

NOTE: "FAIR" INDICATES FEW OR NO CLOUDS BELOW 12,000 FEET WITH NO
SIGNIFICANT WEATHER AND/OR OBSTRUCTIONS TO VISIBILITY.

TXZ118-119-311000-
DALLAS/FORT WORTH METROPLEX

CITY           SKY/WX    TMP DP  RH WIND       PRES   REMARKS
DFW AIRPORT    CLOUDY    49  30  48 SE8       30.23F
DALLAS LOVE    CLOUDY    49  31  49 E10       30.24F
FTW MEACHAM    MOCLDY    50  31  48 SE12      30.23F
DAL-EXECUTIVE  CLOUDY    49  31  49 E6        30.23F
FTW-ALLIANCE   MOCLDY    48  30  49 SE9       30.22F
FTW-SPINKS     CLOUDY    48  32  53 SE5       30.24F
ARLINGTON      CLOUDY    50  30  46 E7        30.24F
GRAND PRAIRIE  CLOUDY    48  33  55 E7        30.26F
ADDISON        MOCLDY    49  31  51 E10       30.25F
MESQUITE       CLOUDY    46  32  57 E6        30.26F
LANCASTER      CLOUDY    44  33  66 E3        30.26F
$$

TXZ091>094-102>105-117-120-121-131>134-311000-
NORTH CENTRAL TEXAS

CITY           SKY/WX    TMP DP  RH WIND       PRES   REMARKS
SHRMAN/DENISON CLOUDY    47  33  58 SE8       30.26F
GAINESVILLE    MOCLDY    46  30  55 SE10      30.25F
BOWIE          PTCLDY    44  32  61 SE7       30.21F
BRIDGEPORT     MOCLDY    44  34  68 CALM      30.24F
DECATUR        MOCLDY    44  30  59 E7        30.22F WCI  39
DENTON         MOCLDY    47  31  53 SE7       30.23F
MCKINNEY       CLOUDY    46  31  55 SE6       30.25F
GREENVILLE     CLOUDY    46  32  57 E5        30.27S
ROCKWALL       CLOUDY    47  32  55 E8        30.25F
TERRELL        CLOUDY    48  32  53 E6        30.26F
WAXAHACHIE     CLOUDY    46  35  65 E3        30.25F
CLEBURNE       CLOUDY    48  32  53 E9        30.23F
GRANBURY       MOCLDY    48  36  61 E6        30.22F
$$

TXZ083>090-098>101-113>116-127>130-139>142-154-155-311000-
WESTERN NORTH TEXAS

CITY           SKY/WX    TMP DP  RH WIND       PRES   REMARKS
WICHITA FALLS  CLOUDY    46  33  60 NE3       30.21F
WF-KICKAPOO    CLOUDY   N/A N/A N/A E5        30.23F
VERNON         CLOUDY    46  31  56 E6        30.21F
ABILENE        CLOUDY    46  34  62 SE10      30.16F
ABILENE-DYESS  CLOUDY    46  36  68 SE8       30.14F
BRECKENRIDGE   CLOUDY    49  32  51 S5        30.19F
GRAHAM         CLOUDY    47  33  57 SE8       30.18F
MINERAL WELLS  PTCLDY    47  31  53 SE10      30.19F
STEPHENVILLE   CLOUDY    47  32  55 SE7       30.22F
COMANCHE       CLOUDY    45  37  71 SE6       30.19F
BROWNWOOD      CLOUDY    46  34  61 SE8       30.19F
COLEMAN        CLOUDY    47  36  64 SE10      30.17F
BRADY          CLOUDY    46  36  66 SE9       30.15F
$$

TXZ143>147-156>162-174-175-311000-
CENTRAL TEXAS

CITY           SKY/WX    TMP DP  RH WIND       PRES   REMARKS
WACO           CLOUDY    47  35  63 SE5       30.23F
WACO-MCGREGOR  CLOUDY    46  30  53 SE9       30.23F
HILLSBORO      CLOUDY    48  32  55 E9        30.22F
CORSICANA      CLOUDY    49  33  54 SE9       30.26F
MEXIA          CLOUDY    45  34  65 E3        30.23F
HEARNE         PTCLDY    46  34  61 E5        30.25S
CAMERON        PTCLDY    47  36  66 SE5       30.23F
TEMPLE         MOCLDY    46  30  53 SE9       30.21
KILLEEN        PTCLDY    46  35  64 SE13      30.20F WCI  40
KILLEEN-SKYLRK MOCLDY    46  32  57 SE9       30.19F
FORT HOOD      MOCLDY    46  35  66 SE9       30.20F
GATESVILLE     MOCLDY    45  36  70 CALM      30.23F
HAMILTON       MOCLDY    46  35  64 S9        30.21F
LAMPASAS       CLOUDY    45  37  74 CALM      30.19F
$$

TXZ095>097-106>112-122>126-135>138-148>153-164>167-311000-
EAST TEXAS

CITY           SKY/WX    TMP DP  RH WIND       PRES   REMARKS
PARIS          CLOUDY    45  30  57 E10       30.29F WCI  39
SULPHUR SPRNGS CLOUDY    47  31  55 E7        30.30F
MOUNT PLEASANT CLOUDY    45  32  60 E7        30.31F
GILMER         MOCLDY    44  32  63 E3        30.29S
MINEOLA        CLOUDY    46  32  57 SE5       30.29S
TYLER          MOCLDY    47  31  53 E7        30.26F
LONGVIEW       PTCLDY    44  32  62 E7        30.28F
MARSHALL       MOCLDY    48  35  60 SE5       30.32F
ATHENS         MOCLDY    45  32  61 E5        30.26F
PALESTINE      PTCLDY    46  33  59 E7        30.27F
JACKSONVILLE   PTCLDY    43  33  66 MISG      30.27F
HENDERSON      PTCLDY    43  32  65 E6        30.29F WCI  39
NACOGDOCHES    CLEAR     43  30  61 E5        30.28F
LUFKIN         CLEAR     43  34  70 E6        30.27F WCI  39
$$

SUPPLEMENTAL OBSERVATIONS (CENTRAL)

CITY           SKY/WX    TMP DP  RH WIND       PRES   REMARKS
CADDO GRASSLND   N/A     46  32  57 SE7         N/A
PAT MAYSE LAKE   N/A     45  32  61 E6          N/A
GREENVILLE       N/A     46  32  57 SE7         N/A
CEDAR HILL       N/A     48  32  53 E5          N/A
PALESTINE        N/A     45  32  61 E6          N/A
MCGREGOR         N/A     46  32  57 SE7         N/A
TEMPLE           N/A     46  36  66 SE6         N/A
$$

SUPPLEMENTAL OBSERVATIONS (WEST)

CITY           SKY/WX    TMP DP  RH WIND       PRES   REMARKS
MILLERS CREEK    N/A     46  34  61 S3          N/A
POSSUM KINGDOM   N/A     46  32  57 SE8         N/A
LBJ GRASSLAND    N/A     45  30  57 CALM        N/A
GRANBURY         N/A     46  32  57 SE6         N/A
HAMBY            N/A     46  34  61 SE5         N/A
IVIE RESERVOIR   N/A     46  34  61 E9          N/A
COLORADO BEND    N/A     46  34  61 SE5         N/A
$$

SUPPLEMENTAL OBSERVATIONS (EAST)

CITY           SKY/WX    TMP DP  RH WIND       PRES   REMARKS
CLARKSVILLE      N/A     45  32  61 E8          N/A
LINDEN           N/A     43  32  65 E5          N/A
GILMER           N/A     45  32  61 E3          N/A
HENDERSON        N/A     43  32  65 E5          N/A
N SABINE NF      N/A     37  32  81 MISG        N/A
S SABINE NF      N/A     43  32  65 NE3         N/A
$$

SUPPLEMENTAL OBSERVATIONS ARE A COLLECTION OF AUTOMATED INSTRUMENTS
THAT ARE MAINTAINED BY A VARIETY OF FEDERAL AND STATE AGENCIES.
CERTAIN ELEMENTS...SUCH AS HUMIDITY VALUES AND SUSTAINED WIND
SPEEDS...MAY BE APPROXIMATED.




USA.gov is the U.S. government's official web portal to all federal, state and local government web resources and services.